Location: Terra Rouge Observatory
(46.0000°N, 62.7500°W)
Time: 17:02:49
(UTC-03:00)

NOSS 3-1 (A) - Visible Passes

Search period start: 29 July 2015 00:00
Search period end: 08 August 2015 00:00
Orbit: 877 x 1336 km, 63.4° (Epoch: 13 July)

Date Brightness Start Highest point End Pass type
(mag) Time Alt. Az. Time Alt. Az. Time Alt. Az.
29 Jul 5.8 04:05:02 10° SE 04:07:16 12° ESE 04:09:56 10° E visible
30 Jul 4.4 05:06:46 10° S 05:12:27 47° ESE 05:18:44 10° NE visible
31 Jul 5.0 04:23:01 10° S 04:28:03 29° ESE 04:33:34 10° NE visible
01 Aug 5.5 03:40:01 10° SSE 03:43:45 18° ESE 03:47:56 10° ENE visible
02 Aug 3.9 04:43:13 10° SSW 04:49:07 62° ESE 04:55:40 10° NE visible
03 Aug 4.4 04:00:10 15° S 04:04:38 39° ESE 04:10:41 10° NE visible
04 Aug 5.0 03:17:04 16° SSE 03:20:17 24° ESE 03:25:23 10° ENE visible
04 Aug 3.7 05:04:32 10° SW 05:10:33 70° NW 05:17:20 10° NE visible
05 Aug 5.5 02:33:57 12° SE 02:36:01 14° ESE 02:39:22 10° ENE visible
05 Aug 3.5 04:21:24 20° SSW 04:25:50 80° SE 04:32:33 10° NE visible
06 Aug 3.9 03:38:14 28° S 03:41:16 52° ESE 03:47:40 10° NE visible
06 Aug 4.4 05:26:35 10° WSW 05:32:25 40° NW 05:38:52 10° NNE visible
07 Aug 4.5 02:55:02 27° SE 02:56:50 33° ESE 03:02:35 10° NE visible
07 Aug 3.9 04:42:29 16° WSW 04:47:26 56° NW 04:54:08 10° NE visible
